Location: Newark
(30.1000°N, 109.4667°E)
Time: 02:16:51
(UTC+00:00)

SR - Pass Details

Date: 23 February 2020
Orbit: 578 x 878 km, 66.7° (Epoch: 08 April)

Event Time Altitude Azimuth Distance (km) Brightness Sun altitude
Rises 17:24:35 0° 331° (NNW) 3,183 - -68.6°
Reaches altitude 10° 17:27:05 10° 328° (NNW) 2,206 - -68.4°
Maximum altitude 17:32:01 63° 248° (WSW) 748 - -68.0°
Drops below altitude 10° 17:36:30 10° 167° (SSE) 2,012 - -67.6°
Sets 17:38:42 0° 164° (SSE) 2,879 - -67.4°
